Tracking 25709 objects as of 23-May-2022
HD Live streaming from Space Station
objects crossing your sky now

HUSKYSAT-1

Track HUSKYSAT-1 now!
10-day predictions
HUSKYSAT-1 is classified as:


NORAD ID: 45119
Int'l Code: 2019-071J
Perigee: 436.0 km
Apogee: 450.1 km
Inclination: 51.6 °
Period: 93.3 minutes
Semi major axis: 6814 km
RCS: Unknown
Launch date: November 2, 2019
Source: United States (US)
Launch site: WALLOPS ISLAND (WLPIS)

Uplink (MHz): 145.910-145.940
Downlink (MHz): 435.840-435.810
Beacon (MHz):
Mode: SSB
Call sign:
Status: Inactive


Uplink (MHz):
Downlink (MHz): 435.800/24049.000
Beacon (MHz):
Mode: 1200bps BPSK
Call sign:
Status: Inactive

aabbcc
Your satellite tracking list
Your tracking list is empty




NASA's NSSDC Master Catalog

Two Line Element Set (TLE):
1 45119U 19071J   22142.67822339  .00033023  00000-0  73036-3 0  9992
2 45119  51.6375 185.9576 0010402  66.5426 293.6652 15.43460995129388
Source of the keplerian elements: AFSPC